Tracking 18843 objects as of 20-November-2017
HD Live streaming from Space Station
objects crossing your sky now

LEMUR 2 GREENBERG

Track LEMUR 2 GREENBERG now!
10-day predictions
LEMUR 2 GREENBERG is classified as:


NORAD ID: 42837
Int'l Code: 2017-042N
Perigee: 592.1 km
Apogee: 610.6 km
Inclination: 97.6 °
Period: 96.6 minutes
Semi major axis: 6972 km
RCS: Unknown
Launch date: July 14, 2017
Source: United States (US)
Launch site: TYURATAM MISSILE AND SPACE COMPLEX (TTMTR)
aabbcc
Your satellite tracking list
Your tracking list is empty




NASA's NSSDC Master Catalog

Two Line Element Set (TLE):
1 42837U 17042N   17323.77912040  .00001025  00000-0  10850-3 0  9999
2 42837  97.6078 228.9145 0013253 168.2628 191.8903 14.91200845 19141
Source of the keplerian elements: AFSPC